SES-14 (43175 NORAD) Tracking and Keplerian Element Data

This shows tracking and keplerian element data for the satellite.

Feedback or suggestion? Click here.




ElementValue
Catalog43175
NameSES-14
Epoch Orbit482
Epoch Day106.84752559
Epoch Year2019
RAAN233.4439
Inclination0.0183
Eccentricity0.0001143
Argument of Perigee154.3039
Mean Anonmoly74.5556
Mean Motion1.00267957
Decay Rate-3E-06
L11 43175U 18012B 19106.84752559 -.00000300 00000-0 00000-0 0 9998
L22 43175 0.0183 233.4439 0001143 154.3039 74.5556 1.00267957 4829

Live tracking and technical data element details for SES-14 (NORAD 43175). SES-14 can be tracked NOW for your location showing map with azimuth and elevation plus other details from your city location.

Track the satellite on the map from your city or location and see movement details for azimuth, elevation, latitude, longitude, range, height, and movement on the map or in text.







IsCatalogInMostPopularTable: catalog: 43175, numindb: 204
Update: records affected: 1



GetName: 43175 SES-14

Hit Count: updated at: Sat, 20 Apr 2019 00:55:50 GMT